Вернуться в каталог

SURCAL 159

АктивенВоенныеLEO
NORAD 2872·PAYLOAD·🇺🇸 United States

Запущен May 31, 1967 с Vandenberg Space Force Base

Loading…

Ближайшие Пролёты (ближайшие 24 часа)

TLE

СвежийSource: Space-Track

Эпоха: Sep 14, 2026, 03:13 UTC

1 02872U 67053F   26257.13444394  .00000060  00000-0  77861-4 0  9993
2 02872  69.9745 169.2919 0007510 338.2376  21.8411 13.99619858 22654

Отслеживайте SURCAL 159 в реальном времени с AllMySat

Download on the App Store